RH
93 94 95 94 95 95 96 97 98 96 82 66 64 62 61 65 67 67 71 83 92 93 92 92 90 90 90 90 91 92 94 96 97 99 97 97 96 96
80 84 83 85 89 92 94 93 96 98 96 68 64 68 70 74 76 79 73 88 92 98 100 100 98 96 94 94 94 95 97 98 99 99 98 97 97 98
75 78 81 79 87 86 90 89 93 94 97 88 78 81 83 85 81 80 82 78 79 100 100 100 100 100 100 99 100 100 100 100 100 99 99 98 98 96
72 74 75 75 82 88 90 89 90 90 96 96 88 88 85 77 80 81 75 73 80 92 100 100 100 100 100 100 100 100 100 100 100 100 100 99 97 94
71 73 72 72 88 88 85 86 83 78 82 92 92 85 82 84 79 75 80 81 84 94 99 100 100 100 100 100 100 100 100 100 100 100 100 100 98 95
72 72 70 70 74 78 73 76 72 78 78 84 89 91 89 83 82 91 96 92 91 91 98 98 99 99 99 100 100 99 99 100 99 99 99 99 97 93
68 61 67 73 80 81 74 76 76 75 81 83 87 93 97 97 97 98 98 96 92 98 98 97 95 95 96 98 98 99 98 98 98 97 96 95 96 94
65 63 62 68 69 80 83 88 84 76 74 76 82 86 87 94 97 98 98 99 100 99 99 99 98 98 98 98 99 98 98 97 97 95 94 94 95 96
62 63 59 52 71 65 72 79 74 82 85 76 77 73 78 78 86 92 97 97 98 97 99 100 99 99 99 98 98 98 97 96 94 95 94 94 96 97
66 69 72 71 71 79 77 78 76 74 74 70 73 72 72 73 79 85 93 97 98 99 99 100 100 100 99 99 95 96 96 95 94 94 94 97 98 98
70 71 74 73 75 83 80 80 78 83 74 84 87 87 87 80 86 87 98 100 100 100 100 100 100 100 100 100 99 95 94 94 95 96 95 97 98 100
72 70 78 80 85 85 83 84 89 92 92 93 89 87 83 76 86 88 90 96 100 100 100 100 100 100 100 100 100 100 100 100 100 100 99 99 100 99
80 81 75 80 84 85 86 85 92 95 98 100 98 99 98 99 99 100 97 99 100 100 100 100 100 100 99 99 100 100 100 100 100 100 98 98 100 99
82 82 76 81 85 87 84 85 89 92 98 100 100 100 100 100 100 100 100 100 100 100 100 100 100 100 100 98 99 99 99 99 100 100 100 100 100 100
84 87 91 89 87 85 82 86 89 89 97 100 100 100 100 98 100 100 98 98 99 100 99 99 99 99 99 97 98 99 96 97 98 98 99 100 100 100
82 82 83 90 89 88 85 81 81 80 88 93 96 97 91 90 93 92 98 98 100 100 98 97 96 94 97 96 93 97 94 94 97 97 99 100 100 100
86 82 83 81 81 80 79 80 83 82 85 92 95 97 95 86 84 92 98 99 99 98 98 97 96 94 96 92 95 95 97 95 96 97 97 98 100 100
83 85 89 90 89 86 87 88 87 86 84 83 86 91 94 93 88 95 100 99 99 97 95 97 96 96 93 95 87 95 94 93 96 99 98 91 95 99
83 89 92 92 91 86 85 86 90 85 78 85 92 96 97 97 98 97 100 100 100 96 96 96 97 96 95 93 95 90 90 93 96 98 97 96 92 98
73 81 85 83 82 82 83 85 86 88 88 87 91 96 100 99 98 99 100 100 99 96 96 98 98 96 92 88 93 99 92 94 90 93 94 95 96 97
77 79 80 83 85 85 88 91 94 96 96 99 95 98 100 99 98 99 100 100 99 95 95 96 95 97 90 75 92 95 99 98 91 85 94 89 90 92
80 82 80 85 88 89 91 98 99 98 99 96 100 100 100 100 99 100 100 98 97 91 92 94 96 93 80 68 89 94 95 99 97 96 93 88 88 93
94 90 90 94 95 96 91 95 93 92 96 96 97 99 100 100 100 100 100 96 92 92 86 92 92 85 85 79 82 92 93 93 89 88 95 91 88 88
Wind_Speed
10 10 10 9 9 8 7 6 6 10 13 13 9 10 9 7 7 8 11 13 15 18 20 19 19 20 21 22 22 23 23 21 18 16 16 14 19 19
10 12 10 7 8 8 6 8 8 10 13 12 12 12 9 8 10 10 11 12 14 15 19 18 16 17 18 19 21 22 21 19 19 17 17 17 17 18
13 13 13 13 8 9 8 7 8 8 12 9 11 10 15 14 12 11 10 12 11 10 15 17 17 17 18 18 18 20 19 19 17 17 17 17 17 17
14 13 14 11 14 11 9 11 9 10 10 15 12 9 10 14 14 15 14 12 13 11 12 14 16 17 17 15 12 12 15 15 14 15 15 17 18 18
14 14 13 14 11 9 10 9 10 10 11 10 11 10 10 9 12 11 14 14 9 12 8 8 9 12 12 11 9 13 13 12 5 8 14 15 16 20
13 13 13 13 14 14 12 13 12 12 12 11 9 9 9 11 11 10 10 9 10 8 6 9 9 9 9 6 13 13 15 15 16 13 16 15 13 15
14 13 12 15 17 12 10 12 14 12 11 11 11 9 8 7 8 7 8 10 9 3 4 4 7 6 8 8 5 10 13 20 23 22 19 17 17 17
15 14 14 15 12 15 11 12 11 13 15 11 11 13 13 10 8 8 8 7 7 3 6 5 6 6 7 7 13 11 15 18 19 17 16 18 17 13
15 14 14 11 14 14 17 16 15 10 11 13 15 14 16 14 12 12 9 8 7 7 4 3 4 4 6 4 10 13 15 16 16 18 13 17 16 16
14 15 15 15 15 16 17 16 15 14 15 12 15 15 15 16 16 12 13 11 8 6 3 3 2 3 3 5 9 13 13 12 13 13 14 15 15 15
13 13 14 16 18 18 16 17 16 12 12 15 17 19 18 19 16 11 9 7 5 3 2 3 1 2 2 3 4 9 9 11 10 11 11 17 17 16
12 12 14 16 20 21 16 15 16 12 12 13 13 14 14 13 13 11 9 9 5 4 2 4 3 3 2 3 2 3 2 6 6 8 7 12 15 5
11 11 11 19 21 23 23 16 15 15 14 11 10 9 9 7 5 6 7 6 7 6 2 2 2 3 2 3 2 1 2 1 3 2 5 14 12 6
13 11 14 22 25 26 20 21 23 16 9 8 8 9 9 8 6 6 7 8 7 10 7 3 2 3 3 3 3 2 4 5 5 5 5 11 12 10
12 17 24 24 24 18 18 19 16 10 8 8 8 8 9 8 9 8 7 8 6 3 4 4 2 2 2 4 4 3 4 4 4 5 6 5 4 4
15 13 16 18 17 13 12 11 10 10 9 9 9 9 9 9 7 6 6 5 2 0 4 2 4 4 3 4 5 6 6 4 3 5 6 6 6 6
16 12 11 10 11 10 10 10 9 9 9 8 8 8 8 9 8 6 5 4 3 1 2 5 9 11 9 6 6 6 7 6 6 7 8 9 7 7
13 11 10 10 11 11 10 10 9 10 9 10 9 8 8 8 8 6 4 4 3 3 4 4 7 8 5 10 12 8 7 8 7 7 7 9 10 9
10 10 10 10 11 11 11 10 10 9 12 10 8 8 7 7 7 6 4 3 2 3 5 4 3 3 6 6 4 8 8 8 8 8 7 8 10 9
10 10 11 11 11 12 11 11 10 9 9 9 9 7 6 6 6 5 4 3 2 3 5 4 3 3 6 6 8 7 6 9 8 10 10 10 10 15
11 11 11 11 11 11 11 10 11 10 9 9 9 7 6 5 6 5 4 3 5 6 6 6 7 12 10 12 11 11 10 15 10 10 9 9 8 7
12 12 12 12 12 12 11 10 9 9 8 7 7 6 6 4 5 4 2 4 5 7 9 8 8 8 9 12 14 16 12 11 15 17 15 10 1 4
13 13 13 12 11 11 11 10 9 9 8 8 7 6 5 4 3 1 4 7 9 10 10 10 9 10 11 12 15 13 18 13 10 12 13 22 25 24
Wind_Direction
353 356 354 344 335 311 286 264 259 283 279 278 258 232 241 242 261 271 275 275 263 257 256 253 246 237 232 229 229 227 226 220 216 212 206 227 241 238
356 351 342 335 321 301 313 338 297 267 274 281 287 293 288 288 291 275 277 288 263 265 268 262 253 252 239 229 227 227 222 220 207 203 216 221 230 233
350 344 336 332 327 326 332 331 315 323 301 306 302 320 327 313 297 280 272 277 283 262 261 257 258 251 244 232 221 217 218 212 208 210 212 216 225 193
345 343 337 336 335 359 347 336 333 325 315 311 314 309 302 300 297 295 290 283 277 268 257 264 253 246 236 233 221 226 198 218 222 223 215 217 170 155
340 336 335 336 341 342 330 327 321 320 313 307 309 309 302 306 308 326 322 306 287 277 270 282 300 280 260 219 185 190 163 219 199 252 178 142 136 136
335 331 327 328 326 327 326 322 326 315 308 308 310 307 320 316 320 342 335 341 326 336 359 11 9 0 313 349 223 203 174 129 146 134 115 98 102 131
326 324 323 324 315 327 320 325 323 321 320 316 314 314 321 336 338 338 326 321 330 2 327 12 343 351 343 46 13 87 123 128 118 122 115 112 119 121
322 321 319 310 325 310 306 294 296 310 310 308 309 306 310 327 327 328 323 343 330 36 355 334 343 15 350 20 52 65 88 90 95 102 112 119 113 110
319 320 320 321 317 322 321 311 305 296 273 298 302 307 310 317 318 313 315 311 293 307 322 306 12 16 357 25 61 75 72 88 99 114 123 120 118 116
320 322 319 317 318 326 321 317 314 311 312 309 303 305 307 312 307 298 296 291 282 261 220 276 357 49 349 22 66 86 92 98 114 117 130 125 123 124
318 317 315 313 315 311 310 308 305 299 297 295 295 294 285 300 293 294 285 285 291 246 196 137 7 103 43 30 28 78 101 122 125 136 148 136 135 124
313 307 299 294 297 300 303 303 298 297 295 293 294 292 283 296 292 288 290 278 276 285 202 140 162 145 82 7 38 68 51 82 123 134 134 133 121 113
310 309 304 304 300 302 302 297 290 294 293 287 289 287 285 274 260 256 264 266 274 255 286 127 156 149 110 130 102 119 134 89 51 100 139 131 115 112
304 302 303 305 301 298 299 293 290 293 289 284 283 286 287 289 277 263 257 264 247 252 284 266 243 173 137 127 136 136 72 63 55 70 85 95 93 91
297 294 296 295 293 292 288 290 295 293 293 289 289 285 285 288 287 280 274 269 262 256 254 224 188 154 134 123 135 132 121 58 64 77 69 74 83 95
311 304 299 289 283 278 286 292 297 300 301 296 292 291 294 297 290 287 283 292 261 211 19 48 139 128 91 90 115 124 117 121 101 97 101 89 80 69
307 302 301 305 305 306 303 303 300 299 302 294 293 292 293 298 294 290 273 275 243 177 100 66 78 77 71 101 99 103 107 102 111 115 111 98 74 70
307 304 306 306 306 306 305 303 300 297 300 302 301 293 292 293 298 293 265 258 242 166 143 142 124 111 94 62 59 107 107 113 112 102 102 103 90 73
310 306 304 304 304 302 301 300 301 301 301 298 294 290 286 285 292 290 279 255 221 162 154 157 182 142 113 106 91 55 121 119 119 104 94 92 93 84
319 310 306 304 302 302 302 300 299 299 296 297 296 292 289 279 286 284 274 251 189 145 143 144 113 83 118 123 119 92 86 122 120 109 100 91 95 108
313 311 306 303 301 299 297 295 293 291 293 290 291 289 290 275 284 275 271 202 146 139 132 104 91 102 109 111 105 104 80 67 87 114 122 109 101 99
313 309 307 304 300 297 295 294 291 294 291 290 290 289 282 276 278 280 223 154 132 112 104 108 114 118 122 113 110 112 109 94 72 69 59 49 84 112
310 308 306 304 302 300 297 293 292 292 293 290 293 288 276 282 274 206 123 113 120 118 118 109 104 105 109 110 109 106 110 101 97 87 75 75 80 86